Find Starlink 32851

NORAD ID: 62810 Int'l Des: 2025-018 Owner: SPXS Country: US Constellation: starlink operational
LEOCIRCULAR

Live-Position

3D-Globus wird geladen...

Über Starlink 32851

Beschreibung wird geladen...

Nächste Überflüge

Passes for default location (London). Set your location on the main map for personalized predictions.

Höhenverlauf

Loading altitude history...

Zweizeiliger Elementsatz

1 62810U 25018E 26125.47684670 .00019989 00000-0 68478-3 0 9993
2 62810 53.1584 45.7648 0000557 89.4165 270.6899 15.30219641 71864
Epoch: 5. Mai 2026 • Age: 14 hours

Aktueller Status

Höhe 476.3 km
Geschwindigkeit 7.63 km/s
Subsatellitenpunkt 28.43°N, 177.2°E
Startdatum 24. Jan. 2025
Alter 1.2 years
Typ internet

Technische Details

Klassifizierung Payload
Masse 730.00 kg
Trockenmasse 700.00 kg
Gesamtmasse 730.00 kg
Länge 0.30 m
Durchmesser 4.10 m
Spannweite 29.00 m
Form Box + pan
Hersteller SPXS
Bus-Typ Starlink V2M
Phasenstatus In Orbit
Besitzer/Staat SPXS/US

Most Searched